Regional Weather Roundup
Issued by NWS

Home | Current Version | Previous Version | Text Only | Print | Product List | Glossary Off
Versions: 1 2 3 4 5 6 7 8 9 10 11 12 13 14 15 16 17 18 19 20 21 22 23 24 25 26 27 28 29 30 31 32 33 34 35 36 37 38 39 40 41 42 43 44 45 46 47 48 49 50

000
ASUS44 KMEG 212010
RWRTN
TENNESSEE HOURLY STATE WEATHER ROUNDUP
NATIONAL WEATHER SERVICE MEMPHIS TN
300 PM CDT THU AUG 21 2014

TNZ002-004-019-021-049-052-054-088>092-212100-
WEST TENNESSEE

CITY           SKY/WX    TMP DP  RH WIND       PRES   REMARKS
MEMPHIS INTL   MOSUNNY   96  72  45 W9G20     30.07F HX 104
NWS MEMPHIS      N/A     94 N/A N/A MISG        N/A
JACKSON        MOSUNNY   90  73  57 W5        30.08F HX  98
DYERSBURG      PTSUNNY   91  68  46 S8        30.06F HX  95
UNION CITY     SUNNY     90  73  58 SW10      30.04F HX  98
PARIS          MOSUNNY   90  72  55 SW13      30.07F HX  96
HUNTINGDON     MOSUNNY   90  72  55 SW12      30.07F HX  97
LEXINGTON      MOSUNNY   91  72  52 SW12      30.08F HX  98
SAVANNAH       MOSUNNY   90  75  62 SW5       30.09F HX 100
$$

TNZ008-025-027-028-033-062-065-066-212100-
NORTH MIDDLE TENNESSEE

CITY           SKY/WX    TMP DP  RH WIND       PRES   REMARKS
NASHVILLE      PTSUNNY   93  70  46 SW10      30.09F HX  99
PORTLAND       MOSUNNY   90  72  55 SW8       30.08  HX  96
CLARKSVILLE    MOSUNNY   92  72  51 SW7       30.05F HX  99
SMYRNA         MOSUNNY   94  70  45 NW7       30.09F HX 100
MURFREESBORO   MOSUNNY   92  67  43 CALM      30.08F HX  95
COOKEVILLE     SUNNY     91  73  55 NW5       30.12F HX 100
GALLATIN         N/A     93  74  54 S7        30.10F HX 102
CROSSVILLE     SUNNY     85  66  53 W9        30.18F
$$

TNZ061-075-076-078-094-096-097-212100-
SOUTH MIDDLE TENNESSEE

CITY           SKY/WX    TMP DP  RH WIND       PRES   REMARKS
LEWISBURG      SUNNY     93  69  45 SW7       30.10F HX  98
FAYETTEVILLE   PTSUNNY   88  70  55 SW3       30.12F HX  92
TULLAHOMA      MOSUNNY   90  68  48 W7        30.13F HX  93
WINCHESTER     SUNNY     90  72  55 VRB6      30.12F HX  96
MCMINNVILLE    MOSUNNY   90  73  58 SW3       30.12F HX  98
COLUMBIA       PTSUNNY   93  73  52 W7        30.09F HX 102
SHELBYVILLE    MOSUNNY   93  73  52 SW6       30.11F HX 102
$$

TNZ017-018-042-046-047-212100-
NORTHEAST TENNESSEE

CITY           SKY/WX    TMP DP  RH WIND       PRES   REMARKS
TRI CITIES     MOSUNNY   85  70  60 W8        30.15F
ELIZABETHTON   MOCLDY    82  70  65 W7        30.15F
$$

TNZ012-013-036-069-073-074-212100-
CENTRAL EAST TENNESSEE

CITY           SKY/WX    TMP DP  RH WIND       PRES   REMARKS
KNOXVILLE      MOSUNNY   87  71  58 VRB3      30.11F HX  93
OAK RIDGE      PTSUNNY   89  71  55 W5        30.13F HX  95
GATLINBURG     MOCLDY    90  72  55 W6        30.11F HX  96
MORRISTOWN     CLEAR     86  72  62 CALM      30.14F HX  92
$$

TNZ083-085-099-212100-
SOUTHEAST TENNESSEE

CITY           SKY/WX    TMP DP  RH WIND       PRES   REMARKS
CHATTANOOGA    MOSUNNY   93  67  42 CALM      30.11F HX  96
$$

SKY/WX REPORTED AS FAIR MEANS FEW OR NO CLOUDS BELOW
12 THOUSAND FEET.




USA.gov is the U.S. government's official web portal to all federal, state and local government web resources and services.